Satellite: RS-30
Catalog number: 32953
Epoch time:      11328.23969382
Element set:     284
Inclination:      082.5026 deg
RA of node:       063.2078 deg
Eccentricity:    0.0019326
Arg of perigee:   040.3957 deg
Mean anomaly:     319.8566 deg
Mean motion:   12.43017468 rev/day
Decay rate:        1.0e-07 rev/day^2
Epoch rev:           15897
Checksum:              310

Satellite: TACSAT-3
Catalog number: 35001
Epoch time:      11327.96180544
Element set:    0783
Inclination:      040.4557 deg
RA of node:       277.2324 deg
Eccentricity:    0.0011863
Arg of perigee:   299.8741 deg
Mean anomaly:     060.0792 deg
Mean motion:   15.60431319 rev/day
Decay rate:     8.4064e-04 rev/day^2
Epoch rev:           14192
Checksum:              296

Satellite: PHARMSAT
Catalog number: 35002
Epoch time:      11327.98644236
Element set:    0717
Inclination:      040.4727 deg
RA of node:       276.8049 deg
Eccentricity:    0.0015224
Arg of perigee:   322.6707 deg
Mean anomaly:     037.3099 deg
Mean motion:   15.57167724 rev/day
Decay rate:     5.8991e-04 rev/day^2
Epoch rev:           14193
Checksum:              315

Satellite: HAWKSAT1
Catalog number: 35003
Epoch time:      11276.79285837
Element set:     811
Inclination:      040.4398 deg
RA of node:       174.3672 deg
Eccentricity:    0.0011414
Arg of perigee:   274.3918 deg
Mean anomaly:     085.3844 deg
Mean motion:   16.13812532 rev/day
Decay rate:   2.274821e-02 rev/day^2
Epoch rev:           13457
Checksum:              306

Satellite: CP6
Catalog number: 35004
Epoch time:      11247.64656856
Element set:     784
Inclination:      040.4403 deg
RA of node:       342.9642 deg
Eccentricity:    0.0002956
Arg of perigee:   038.0069 deg
Mean anomaly:     322.2231 deg
Mean motion:   16.41039951 rev/day
Decay rate:  1.6152067e-01 rev/day^2
Epoch rev:           13013
Checksum:              285

Satellite: METEOR-M
Catalog number: 35865
Epoch time:      11328.73821359
Element set:     929
Inclination:      098.6861 deg
RA of node:       021.6108 deg
Eccentricity:    0.0001969
Arg of perigee:   303.9637 deg
Mean anomaly:     056.1348 deg
Mean motion:   14.21847972 rev/day
Decay rate:        3.1e-07 rev/day^2
Epoch rev:           11340
Checksum:              308

Satellite: RS-38
Catalog number: 35869
Epoch time:      11328.71795382
Element set:     908
Inclination:      098.6826 deg
RA of node:       021.6140 deg
Eccentricity:    0.0003991
Arg of perigee:   293.4720 deg
Mean anomaly:     066.6037 deg
Mean motion:   14.22037435 rev/day
Decay rate:       1.06e-06 rev/day^2
Epoch rev:           11341
Checksum:              304

Satellite: ARISSAT1
Catalog number: 37772
Epoch time:      11328.76565514
Element set:     348
Inclination:      051.6337 deg
RA of node:       067.0376 deg
Eccentricity:    0.0004313
Arg of perigee:   050.3415 deg
Mean anomaly:     087.3395 deg
Mean motion:   15.81126381 rev/day
Decay rate:    2.57287e-03 rev/day^2
Epoch rev:            1763
Checksum:              304

Satellite: SRMSAT
Catalog number: 37839
Epoch time:      11327.82303341
Element set:    0037
Inclination:      019.9623 deg
RA of node:       168.3689 deg
Eccentricity:    0.0019255
Arg of perigee:   111.3391 deg
Mean anomaly:     248.9070 deg
Mean motion:   14.11994545 rev/day
Decay rate:       6.19e-06 rev/day^2
Epoch rev:           00604
Checksum:              298

Satellite: JUGNU
Catalog number: 37841
Epoch time:      11327.80975646
Element set:      33
Inclination:      019.9728 deg
RA of node:       169.2965 deg
Eccentricity:    0.0011139
Arg of perigee:   086.3993 deg
Mean anomaly:     273.7725 deg
Mean motion:   14.10089676 rev/day
Decay rate:       2.64e-06 rev/day^2
Epoch rev:             602
Checksum:              319

/EX


_______________________________________________
Via the Keps mailing list courtesy of AMSAT-NA
http://amsat.org/mailman/listinfo/keps

--- ViaMAIL!/WC v1.60d
 * Origin: Chowdanet (401-724-4410) telnet://chowdanet.com  (1:323/120)